Location: Shoshoni
(43.2355°N, 108.1106°W)
Time: 12:48:01
(UTC-06:00)

OTV 5 (USA 277) - Visible Passes

Search period start: 18 June 2018 00:00
Search period end: 28 June 2018 00:00
Orbit: 313 x 320 km, 54.5° (Epoch: 18 June)

Date Brightness Start Highest point End Pass type
(mag) Time Alt. Az. Time Alt. Az. Time Alt. Az.
18 Jun ? 02:59:53 10° NNW 03:02:01 20° NNE 03:04:09 10° ENE visible
18 Jun ? 04:33:52 10° WNW 04:36:26 40° SW 04:39:00 10° SSE visible
18 Jun ? 22:29:03 10° W 22:31:13 21° NNW 22:33:23 10° NNE visible
19 Jun ? 01:41:00 10° N 01:41:43 11° NNE 01:42:27 10° NNE visible
19 Jun ? 03:14:03 10° NW 03:16:38 40° NNE 03:19:13 10° ESE visible
19 Jun ? 04:49:02 10° W 04:50:43 15° SW 04:52:22 10° SSW visible
19 Jun ? 22:44:32 10° NW 22:45:57 13° NNW 22:47:21 10° NNE visible
20 Jun ? 01:54:45 10° NNW 01:56:31 16° NNE 01:58:17 10° ENE visible
20 Jun ? 03:28:25 10° NW 03:31:07 72° SW 03:31:48 44° SSE visible
21 Jun ? 02:08:48 10° NNW 02:11:12 27° NNE 02:11:17 27° NNE visible
21 Jun ? 21:38:35 10° WNW 21:40:25 16° NNW 21:42:15 10° NNE visible
22 Jun ? 00:49:40 10° N 00:50:59 13° NNE 00:52:18 10° NE visible
22 Jun ? 02:23:04 10° NW 02:23:35 14° NW 02:23:35 14° NW visible
22 Jun ? 21:54:22 10° NNW 21:55:12 11° NNW 21:56:03 10° N visible
23 Jun ? 01:03:37 10° NNW 01:05:38 20° NNE 01:05:38 20° NNE visible
23 Jun ? 23:44:47 10° N 23:45:26 11° NNE 23:46:06 10° NNE visible
24 Jun ? 01:17:46 10° NW 01:18:45 19° NNW 01:18:45 19° NNW visible
24 Jun ? 23:58:29 10° NNW 00:00:14 15° NNE 00:01:11 13° NE visible
26 Jun ? 00:12:32 10° NNW 00:14:32 26° NNE 00:14:32 26° NNE visible
26 Jun ? 22:53:25 10° N 22:54:42 12° NNE 22:55:59 10° NE visible
27 Jun ? 00:26:48 10° NW 00:27:57 22° NW 00:27:57 22° NW visible
27 Jun ? 23:07:22 10° NNW 23:09:27 20° NNE 23:10:37 15° ENE visible
